SOYUZ-MS 23 (55688 NORAD) Tracking and Keplerian Element Data

This shows tracking and keplerian element data for the satellite.

Feedback or suggestion? Click here.




ElementValue
Catalog55688
NameSOYUZ-MS 23
Epoch Orbit38878
Epoch Day84.33064495
Epoch Year2023
RAAN24.0027
Inclination51.6424
Eccentricity0.0006186
Argument of Perigee130.1254
Mean Anonmoly7.8345
Mean Motion15.49509892
Decay Rate0.00020909
L11 55688U 23024A 23084.33064495 .00020909 00000+0 37966-3 0 9997
L22 55688 51.6424 24.0027 0006186 130.1254 7.8345 15.49509892388781



Live tracking and technical data element details for SOYUZ-MS 23 (NORAD 55688). SOYUZ-MS 23 can be tracked NOW for your location showing map with azimuth and elevation plus other details from your city location.







IsCatalogInMostPopularTable: catalog: 55688, numindb: 3
Update: records affected: 1



GetName: 55688 SOYUZ-MS 23

Hit Count: updated at: Tue, 28 Mar 2023 02:27:04 GMT